LKPRLKTB

Guest
Details From LKPR - Ruzyne
To LKTB - Turany
Flight Number -
Tags Decoded
Created
Modified
Stats Distance 116 nm / 215 km
Max Altitude 0 ft / 0 m
Waypoints 4
Social Downloads 17
Likes 0
Share VATSIM

Download

Looking for another format? Having issues loading an existing format? Contact us
Advertisement - Login to hide

Notes

Decoded

Route

LKPR VOZ BODAL LKTB

ID Type Via Altitude Latitude Longitude Leg Dist Tot Dist Heading (true) Name
O LKPR APT - 0 ft / 0 m 50.08771˚ 14.26668˚ - 0 nm - -
VOZ VOR - 0 ft / 0 m 49.53233˚ 14.87466˚ 40 nm 40 nm 145° / 145° VOZICE VOR-DME
BODAL FIX - 0 ft / 0 m 49.46411˚ 15.78270˚ 35 nm 76 nm 96° / 97° -
O LKTB APT - 0 ft / 0 m 49.15287˚ 16.67587˚ 39 nm 116 nm 118° / 118° -

Altitude Profile

Advertisement - Login to hide

LKPR

Details ICAO LKPR (PRG)
Name Praha - Ruzyne
Region Czech Republic
Timezone Europe/Prague (UTC+2.0)
Stats Elevation 1,246 ft / 380 m (AMSL)
Location 50.101144° 14.262963°
Runways 3
Magnetic Variation 3.916° E

METAR

LKPR 201600Z 06010KT CAVOK 20/05 Q1021 NOSIG

Decode

TAF

TAF LKPR 201100Z 2012/2118 08012KT CAVOK TEMPO 2012/2021 09014G24KT TEMPO 2107/2117 09014G26KT

Decode

Departure Runways

ID Width Length Bearing (true) Bearing (mag) Surface Threshold Offset Overrun Length
04 197 ft / 60 m 6,932 ft / 2,113 m 36.80° 32.88° Asphalt 0 ft / 0 m 0 ft / 0 m
06 148 ft / 45 m 12,160 ft / 3,706 m 64.92° 61.00° Concrete 0 ft / 0 m 0 ft / 0 m
12 148 ft / 45 m 10,622 ft / 3,238 m 126.99° 123.07° Concrete 0 ft / 0 m 0 ft / 0 m
22 197 ft / 60 m 6,932 ft / 2,113 m 216.81° 212.89° Asphalt 0 ft / 0 m 591 ft / 180 m
24 148 ft / 45 m 12,160 ft / 3,706 m 244.96° 241.04° Concrete 0 ft / 0 m 0 ft / 0 m
30 148 ft / 45 m 10,622 ft / 3,238 m 307.01° 303.09° Concrete 0 ft / 0 m 0 ft / 0 m

LKTB

Details ICAO LKTB (BRQ)
Name Turany
Region Czech Republic
Timezone Europe/Prague (UTC+2.0)
Stats Elevation 777 ft / 237 m (AMSL)
Location 49.151016° 16.693171°
Runways 2
Magnetic Variation 4.430° E

METAR

LKTB 201600Z 07012KT CAVOK 21/09 Q1020 NOSIG

Decode

TAF

TAF LKTB 201100Z 2012/2118 06010KT CAVOK TEMPO 2012/2104 07015G30KT PROB30 TEMPO 2012/2016 9999 SCT045 BECMG 2110/2112 11005KT

Decode

Destination Runways

ID Width Length Bearing (true) Bearing (mag) Surface Threshold Offset Overrun Length
09 98 ft / 30 m 3,272 ft / 997 m 97.50° 93.07° Grass 0 ft / 0 m 0 ft / 0 m
10 197 ft / 60 m 8,674 ft / 2,644 m 97.52° 93.09° Concrete 0 ft / 0 m 0 ft / 0 m
27 98 ft / 30 m 3,272 ft / 997 m 277.51° 273.08° Grass 0 ft / 0 m 0 ft / 0 m
28 197 ft / 60 m 8,674 ft / 2,644 m 277.55° 273.12° Concrete 0 ft / 0 m 0 ft / 0 m

Approach Navaids

Runway Type Ident Frequency Range Bearing (true) Bearing (mag) Slope Elevation
28 Localiser BO 111.50 MHz 18 nm / 33 km 277.51° 273.08° - 771 ft / 235 m (AMSL)
28 Glidescope BO 111.50 MHz 10 nm / 19 km 277.53° 273.10° 3.00° 771 ft / 235 m (AMSL)
28 DME BO 111.50 MHz 18 nm / 33 km - - - 785 ft / 239 m (AMSL)

Popular Alternatives